STARLINK-34886

Last updated on Mon Oct 20 2025 00:02:06 GMT+0000 (Coordinated Universal Time)

1 65683U 25212H 25292.29894418 .00114187 00000+0 20290-2 0 9991 2 65683 53.1583 282.5867 0001253 84.2891 275.8261 15.49341259 5544
UTC large
Height (km)
Speed (km/s)
/
Latitude / Longitude
Inclination (degrees)
Orbital Period (minutes)
Azimuth
Elevation
Range (km)
Doppler Factor

Next 0 passes for location: London (51.5072 / 0.1276)

Sorry there are no passes over London.